Hastings, NE

11:58 AM CDT on August 18, 2019 (GMT -0500)
Hastings Municipal

Weather History for KHSI - July, 2019

Change the Weather History Date:

Sunday, July 21, 2019

  Actual Average Record
Temperature  
Mean Temperature 71 °F 78 °F  
Max Temperature 79 °F 88 °F 107 °F (1934)
Min Temperature 63 °F 67 °F 47 °F (1970)
Degree Days  
Heating Degree Days 0 0  
Month to date heating degree days 0 0  
Since 1 June heating degree days 15 21  
Since 1 July heating degree days 0 0  
Cooling Degree Days 6 13  
Month to date cooling degree days 290 255  
Year to date cooling degree days 565 539  
Since 1 June cooling degree days 512 480  
Growing Degree Days 21 (Base 50)    
Moisture  
Dew Point 66 °F    
Average Humidity 80    
Maximum Humidity 93    
Minimum Humidity 67    
Precipitation  
Precipitation 0.54 in 0.10 in 1.56 in (2006)
Month to date precipitation 4.27 2.73  
Year to date precipitation 21.52 16.35  
Snow  
Snow 0.00 in 0.00 in - ()
Month to date snowfall 0.0 0.0  
Since 1 June snowfall 0.0 0.0  
Since 1 July snowfall 0.0 0.0  
Snow Depth 0.00 in    
Sea Level Pressure  
Sea Level Pressure 30.04 in    
Wind  
Wind Speed 12 mph (North)    
Max Wind Speed 26 mph    
Max Gust Speed 37 mph    
Visibility 7 miles    
Events Rain , Thunderstorm    
T = Trace of Precipitation, MM = Missing Value Source: NWS Daily Summary

Daily Weather History Graph

Daily Weather History Graph

Search for Another Location

Airport or City:

Astronomy

Jul. 21, 2019 Rise Set
Actual Time 6:20 AM CDT 8:59 PM CDT
Civil Twilight 5:48 AM CDT 9:30 PM CDT
Nautical Twilight 5:09 AM CDT 10:10 PM CDT
Astronomical Twilight 4:24 AM CDT 10:55 PM CDT
Moon 11:53 PM CDT (7/21) 10:43 AM CDT (7/21)
Length of Visible Light 15h 42m
Length of Day
14h 38m
Waning Gibbous, 80% of the Moon is Illuminated
Jul 21
Waning Gibbous
Jul 24
Last Quarter
Jul 31
New
Aug 7
First Quarter
Aug 15
Full

Hourly Weather History & Observations

Time (CDT) Temp. Dew Point Humidity Pressure Visibility Wind Dir Wind Speed Gust Speed Precip Events Conditions
12:53 AM 72.0 °F 66.9 °F 84% 29.89 in 10.0 mi NE 13.8 mph 20.7 mph N/A   Overcast
1:15 AM 71.1 °F 66.9 °F 87% 29.96 in 10.0 mi NE 12.7 mph - N/A   Overcast
1:53 AM 71.1 °F 66.9 °F 87% 29.90 in 10.0 mi North - - N/A   Overcast
2:53 AM 71.1 °F 66.9 °F 87% 29.88 in 10.0 mi North - - N/A   Overcast
3:50 AM 71.6 °F 66.2 °F 83% 29.92 in 10.0 mi ENE 16.1 mph 24.2 mph N/A   Overcast
3:53 AM 71.1 °F 66.9 °F 87% 29.86 in 10.0 mi ENE 13.8 mph 24.2 mph N/A   Overcast
4:53 AM 70.0 °F 66.9 °F 90% 29.92 in 5.0 mi NNE 10.4 mph - 0.00 in   Overcast
5:11 AM 69.1 °F 68.0 °F 96% 30.02 in 1.8 mi NW 19.6 mph 29.9 mph 0.02 in Rain Rain
5:20 AM 66.9 °F 66.9 °F 100% 30.02 in 1.0 mi NW 19.6 mph 29.9 mph 0.08 in Rain , Thunderstorm Heavy Rain
5:28 AM 66.9 °F 66.9 °F 100% 30.02 in 1.2 mi NW 18.4 mph 27.6 mph 0.15 in Rain , Thunderstorm Heavy Rain
5:35 AM 66.9 °F 66.9 °F 100% 30.03 in 2.5 mi NW 13.8 mph 25.3 mph 0.19 in Rain , Thunderstorm Thunderstorms and Rain
5:48 AM 66.2 °F 66.2 °F 100% 30.01 in 2.5 mi North 18.4 mph 31.1 mph 0.22 in Rain Heavy Rain
5:53 AM 66.9 °F 66.0 °F 97% 29.98 in 1.8 mi North 17.3 mph 31.1 mph 0.23 in Rain , Thunderstorm Heavy Thunderstorms and Rain
5:57 AM 66.9 °F 66.0 °F 97% 30.04 in 2.0 mi North 13.8 mph 26.5 mph 0.01 in Rain , Thunderstorm Heavy Thunderstorms and Rain
6:03 AM 66.9 °F 66.0 °F 97% 30.06 in 4.0 mi NNW 15.0 mph - 0.03 in Rain , Thunderstorm Light Rain
6:13 AM 66.9 °F 66.0 °F 97% 30.08 in 5.0 mi WNW 11.5 mph - 0.06 in Rain , Thunderstorm Rain
6:22 AM 66.9 °F 64.9 °F 93% 30.07 in 3.0 mi NNW 9.2 mph - 0.09 in Rain , Thunderstorm Heavy Rain
6:28 AM 66.9 °F 64.9 °F 93% 30.03 in 2.0 mi NNE 17.3 mph 21.9 mph 0.10 in Rain , Thunderstorm Heavy Thunderstorms and Rain
6:36 AM 66.0 °F 64.9 °F 96% 30.00 in 1.5 mi NNE 20.7 mph 27.6 mph 0.12 in Rain , Thunderstorm Heavy Thunderstorms and Rain
6:39 AM 66.0 °F 64.9 °F 96% 29.98 in 2.0 mi NNE 25.3 mph 34.5 mph 0.12 in Rain , Thunderstorm Heavy Thunderstorms and Rain
6:45 AM 66.0 °F 64.9 °F 96% 29.97 in 3.0 mi NNE 25.3 mph 36.8 mph 0.13 in Rain , Thunderstorm Rain
6:53 AM 66.0 °F 64.9 °F 96% 29.93 in 6.0 mi NNE 27.6 mph 36.8 mph 0.14 in Rain , Thunderstorm Light Rain
7:08 AM 66.9 °F 66.0 °F 97% 29.98 in 7.0 mi NE 21.9 mph 31.1 mph 0.01 in Rain Light Rain
7:53 AM 68.0 °F 64.9 °F 90% 29.97 in 10.0 mi ENE 12.7 mph 26.5 mph 0.05 in Rain Light Rain
8:37 AM 66.9 °F 64.9 °F 93% 30.04 in 10.0 mi East 15.0 mph 23.0 mph 0.03 in   Scattered Clouds
8:46 AM 66.9 °F 64.9 °F 93% 30.03 in 10.0 mi East 17.3 mph 27.6 mph 0.03 in   Mostly Cloudy
8:53 AM 66.0 °F 64.9 °F 96% 29.99 in 10.0 mi East 19.6 mph 31.1 mph 0.03 in   Mostly Cloudy
9:21 AM 66.0 °F 64.9 °F 96% 30.01 in 10.0 mi East 17.3 mph 26.5 mph 0.02 in Rain Light Rain
9:35 AM 66.9 °F 64.9 °F 93% 30.01 in 10.0 mi ESE 16.1 mph 26.5 mph 0.02 in Rain Light Rain
9:53 AM 68.0 °F 64.9 °F 90% 29.98 in 10.0 mi ESE 12.7 mph - 0.03 in   Mostly Cloudy
10:53 AM 66.9 °F 64.0 °F 90% 30.03 in 10.0 mi South 5.8 mph - 0.01 in   Overcast
11:34 AM 68.0 °F 64.9 °F 90% 30.11 in 8.0 mi WNW 6.9 mph - 0.01 in Rain Light Rain
11:43 AM 69.1 °F 64.9 °F 87% 30.11 in 10.0 mi WNW 5.8 mph - 0.01 in Rain Light Rain
11:53 AM 68.0 °F 64.9 °F 90% 30.07 in 8.0 mi West 3.5 mph - 0.02 in Rain Light Rain
12:02 PM 68.0 °F 66.0 °F 93% 30.11 in 1.8 mi West 4.6 mph - 0.00 in Rain Rain
12:11 PM 68.0 °F 66.0 °F 93% 30.11 in 2.5 mi WNW 6.9 mph - N/A Rain Rain
12:23 PM 68.0 °F 66.0 °F 93% 30.11 in 1.8 mi WNW 4.6 mph - N/A Rain Rain
12:28 PM 68.0 °F 66.0 °F 93% 30.11 in 3.0 mi NW 4.6 mph - N/A Rain Light Rain
12:53 PM 70.0 °F 64.9 °F 84% 30.07 in 10.0 mi NW 5.8 mph - N/A Rain Light Rain
1:53 PM 72.0 °F 66.9 °F 84% 30.05 in 10.0 mi NNW 8.1 mph - 0.01 in Rain Light Rain
2:53 PM 73.9 °F 66.9 °F 79% 30.04 in 10.0 mi North 12.7 mph - 0.01 in   Scattered Clouds
3:41 PM 75.0 °F 68.0 °F 79% 30.10 in 10.0 mi North 16.1 mph - N/A   Mostly Cloudy
3:51 PM 73.4 °F 66.2 °F 78% 30.10 in 10.0 mi North 16.1 mph 25.3 mph N/A   Scattered Clouds
3:53 PM 73.9 °F 66.0 °F 76% 30.06 in 10.0 mi North 17.3 mph 25.3 mph N/A   Scattered Clouds
4:53 PM 77.0 °F 66.9 °F 71% 30.07 in 10.0 mi North 17.3 mph - N/A   Clear
5:53 PM 78.1 °F 66.0 °F 66% 30.08 in 10.0 mi NE 13.8 mph - N/A   Mostly Cloudy
6:00 PM 78.1 °F 66.0 °F 66% 30.12 in 10.0 mi NNE 12.7 mph - N/A   Scattered Clouds
6:53 PM 75.9 °F 66.9 °F 74% 30.09 in 10.0 mi NNE 12.7 mph - N/A   Mostly Cloudy
7:53 PM 73.0 °F 64.9 °F 76% 30.11 in 10.0 mi NNE 13.8 mph - N/A   Mostly Cloudy
8:53 PM 69.1 °F 64.0 °F 84% 30.14 in 10.0 mi NNE 10.4 mph - N/A   Clear
9:53 PM 66.9 °F 62.1 °F 84% 30.15 in 10.0 mi NNE 10.4 mph - N/A   Clear
10:53 PM 64.9 °F 61.0 °F 87% 30.17 in 10.0 mi NNE 5.8 mph - N/A   Partly Cloudy
11:53 PM 64.0 °F 61.0 °F 90% 30.19 in 10.0 mi North 10.4 mph - N/A   Mostly Cloudy